| time (UTC) | temp C | wind direction | speed KPH | gust KPH | rain 1hr cm | rain 24hr cm | rain mn cm | humidity % | barometer mb |
| 20260505080952 | -17 | 172 | 1.6 | 3.2 | 0.00 | 0.00 | 0.00 | 1018.1 | |
| 20260505080448 | -17 | 105 | 3.2 | 3.2 | 0.00 | 0.00 | 0.00 | 1018.0 | |
| 20260505075944 | -17 | 96 | 3.2 | 3.2 | 0.00 | 0.00 | 0.00 | 1018.0 | |
| 20260505075441 | -17 | 108 | 1.6 | 3.2 | 0.00 | 0.00 | 0.00 | 1018.0 | |
| 20260505074938 | -17 | 155 | 1.6 | 3.2 | 0.00 | 0.00 | 0.00 | 1017.8 | |
| 20260505074436 | -17 | 182 | 3.2 | 4.8 | 0.00 | 0.00 | 0.00 | 1018.1 | |
| 20260505073933 | -17 | 144 | 3.2 | 3.2 | 0.00 | 0.00 | 0.00 | 1018.2 | |
| 20260505073430 | -17 | 160 | 1.6 | 1.6 | 0.00 | 0.00 | 0.00 | 1017.9 | |
| 20260505072927 | -17 | 133 | 0.0 | 1.6 | 0.00 | 0.00 | 0.00 | 1017.9 | |
| 20260505072423 | -17 | 112 | 1.6 | 1.6 | 0.00 | 0.00 | 0.00 | 1018.0 | |
| 20260505071920 | -17 | 134 | 1.6 | 4.8 | 0.00 | 0.00 | 0.00 | 1017.9 | |
| 20260505071416 | -17 | 126 | 1.6 | 3.2 | 0.00 | 0.00 | 0.00 | 1017.9 | |
| 20260505070914 | -17 | 185 | 0.0 | 0.0 | 0.00 | 0.00 | 0.00 | 1017.7 | |
| 20260505070410 | -17 | 196 | 0.0 | 0.0 | 0.00 | 0.00 | 0.00 | 1017.9 | |
| 20260505065906 | -17 | 192 | 0.0 | 0.0 | 0.00 | 0.00 | 0.00 | 1017.8 | |
| 20260505065403 | -17 | 183 | 0.0 | 1.6 | 0.00 | 0.00 | 0.00 | 1018.1 | |
| 20260505064859 | -17 | 178 | 1.6 | 3.2 | 0.00 | 0.00 | 0.00 | 1018.0 | |
| 20260505064357 | -17 | 185 | 3.2 | 3.2 | 0.00 | 0.00 | 0.00 | 1017.9 | |
| 20260505063855 | -17 | 188 | 3.2 | 3.2 | 0.00 | 0.00 | 0.00 | 1018.0 | |
| 20260505063355 | -17 | 198 | 3.2 | 3.2 | 0.00 | 0.00 | 0.00 | 1018.1 | |
| 20260505062852 | -17 | 196 | 3.2 | 4.8 | 0.00 | 0.00 | 0.00 | 1018.1 | |
| 20260505062349 | -17 | 206 | 4.8 | 4.8 | 0.00 | 0.00 | 0.00 | 1018.1 | |
| 20260505061846 | -17 | 193 | 3.2 | 4.8 | 0.00 | 0.00 | 0.00 | 1018.2 | |
| 20260505061344 | -17 | 181 | 3.2 | 4.8 | 0.00 | 0.00 | 0.00 | 1018.2 | |
| 20260505060842 | -17 | 202 | 4.8 | 4.8 | 0.00 | 0.00 | 0.00 | 1018.3 | |
| 20260505060338 | -17 | 189 | 4.8 | 4.8 | 0.00 | 0.00 | 0.00 | 1018.4 | |
| 20260505055834 | -17 | 178 | 4.8 | 4.8 | 0.00 | 0.00 | 0.00 | 1018.4 | |
| 20260505055330 | -17 | 177 | 3.2 | 4.8 | 0.00 | 0.00 | 0.00 | 1018.4 | |
| 20260505054828 | -17 | 179 | 3.2 | 3.2 | 0.00 | 0.00 | 0.00 | 1018.2 | |
| 20260505054325 | -17 | 166 | 1.6 | 3.2 | 0.00 | 0.00 | 0.00 | 1018.6 | |
| 20260505053823 | -17 | 170 | 3.2 | 3.2 | 0.00 | 0.00 | 0.00 | 1018.3 | |
| 20260505053320 | -17 | 178 | 3.2 | 4.8 | 0.00 | 0.00 | 0.00 | 1018.6 | |
| 20260505052817 | -17 | 174 | 4.8 | 9.7 | 0.00 | 0.00 | 0.00 | 1018.6 | |
| 20260505052314 | -17 | 172 | 6.4 | 6.4 | 0.00 | 0.00 | 0.00 | 1018.7 | |
| 20260505051810 | -17 | 189 | 6.4 | 6.4 | 0.00 | 0.00 | 0.00 | 1018.7 | |
| 20260505051308 | -17 | 175 | 6.4 | 6.4 | 0.00 | 0.00 | 0.00 | 1018.5 | |
| 20260505050806 | -17 | 189 | 9.7 | 12.9 | 0.00 | 0.00 | 0.00 | 1018.9 | |
| 20260505050305 | -17 | 194 | 12.9 | 14.5 | 0.00 | 0.00 | 0.00 | 1019.0 | |
| 20260505041734 | -17 | 188 | 6.4 | 6.4 | 0.00 | 0.00 | 0.00 | 1019.2 | |
| 20260505041231 | -17 | 188 | 6.4 | 9.7 | 0.00 | 0.00 | 0.00 | 1019.4 | |
| 20260505040729 | -17 | 186 | 8.0 | 9.7 | 0.00 | 0.00 | 0.00 | 1019.2 | |
| 20260505040226 | -17 | 181 | 6.4 | 9.7 | 0.00 | 0.00 | 0.00 | 1019.3 | |
| 20260505035723 | -17 | 170 | 4.8 | 6.4 | 0.00 | 0.00 | 0.00 | 1019.6 | |
| 20260505035219 | -17 | 179 | 3.2 | 4.8 | 0.00 | 0.00 | 0.00 | 1019.2 | |
| 20260505034715 | -17 | 178 | 4.8 | 4.8 | 0.00 | 0.00 | 0.00 | 1019.2 | |
| 20260505034212 | -17 | 150 | 1.6 | 3.2 | 0.00 | 0.00 | 0.00 | 1019.3 | |
| 20260505033708 | -17 | 175 | 3.2 | 4.8 | 0.00 | 0.00 | 0.00 | 1019.4 | |
| 20260505033207 | -17 | 173 | 3.2 | 6.4 | 0.00 | 0.00 | 0.00 | 1019.4 | |
| 20260505032705 | -17 | 173 | 3.2 | 3.2 | 0.00 | 0.00 | 0.00 | 1019.4 | |
| 20260505032200 | -17 | 169 | 3.2 | 4.8 | 0.00 | 0.00 | 0.00 | 1019.5 | |
| 20260505031658 | -17 | 167 | 1.6 | 3.2 | 0.00 | 0.00 | 0.00 | 1019.7 | |
| 20260505031154 | -17 | 166 | 1.6 | 1.6 | 0.00 | 0.00 | 0.00 | 1019.7 | |
| 20260505030651 | -17 | 171 | 1.6 | 3.2 | 0.00 | 0.00 | 0.00 | 1019.7 | |
| 20260505030147 | -17 | 178 | 1.6 | 1.6 | 0.00 | 0.00 | 0.00 | 1019.8 | |
| 20260505025643 | -17 | 167 | 0.0 | 1.6 | 0.00 | 0.00 | 0.00 | 1019.5 | |
| 20260505025142 | -17 | 166 | 0.0 | 3.2 | 0.00 | 0.00 | 0.00 | 1019.8 | |
| 20260505024639 | -17 | 173 | 3.2 | 3.2 | 0.00 | 0.00 | 0.00 | 1019.5 | |
| 20260505024136 | -17 | 179 | 6.4 | 6.4 | 0.00 | 0.00 | 0.00 | 1019.5 | |
| 20260505023633 | -17 | 183 | 6.4 | 9.7 | 0.00 | 0.00 | 0.00 | 1019.4 | |
| 20260505023131 | -17 | 176 | 3.2 | 9.7 | 0.00 | 0.00 | 0.00 | 1019.6 | |
| 20260505022628 | -17 | 191 | 8.0 | 9.7 | 0.00 | 0.00 | 0.00 | 1019.5 | |
| 20260505022125 | -17 | 197 | 6.4 | 6.4 | 0.00 | 0.00 | 0.00 | 1019.4 | |
| 20260505021621 | -17 | 186 | 6.4 | 6.4 | 0.00 | 0.00 | 0.00 | 1019.2 | |
| 20260505021118 | -17 | 188 | 8.0 | 9.7 | 0.00 | 0.00 | 0.00 | 1019.4 | |
| 20260505020614 | -17 | 179 | 6.4 | 6.4 | 0.00 | 0.00 | 0.00 | 1019.4 | |
| 20260505020110 | -17 | 175 | 3.2 | 6.4 | 0.00 | 0.00 | 0.00 | 1019.4 | |
| 20260505015607 | -17 | 191 | 6.4 | 6.4 | 0.00 | 0.00 | 0.00 | 1019.6 | |
| 20260505015104 | -17 | 195 | 4.8 | 4.8 | 0.00 | 0.00 | 0.00 | 1019.2 | |
| 20260505014601 | -17 | 192 | 3.2 | 4.8 | 0.00 | 0.00 | 0.00 | 1019.2 | |
| 20260505014058 | -17 | 193 | 4.8 | 4.8 | 0.00 | 0.00 | 0.00 | 1019.4 | |
| 20260505013555 | -17 | 237 | 3.2 | 4.8 | 0.00 | 0.00 | 0.00 | 1019.4 | |
| 20260505013052 | -17 | 226 | 3.2 | 3.2 | 0.00 | 0.00 | 0.00 | 1019.2 | |
| 20260505012550 | -17 | 179 | 1.6 | 3.2 | 0.00 | 0.00 | 0.00 | 1019.4 | |
| 20260505012047 | -17 | 188 | 1.6 | 4.8 | 0.00 | 0.00 | 0.00 | 1019.4 | |
| 20260505011542 | -17 | 191 | 6.4 | 6.4 | 0.00 | 0.00 | 0.00 | 1018.9 | |
| 20260505011040 | -17 | 200 | 4.8 | 4.8 | 0.00 | 0.00 | 0.00 | 1019.1 | |
| 20260505010535 | -17 | 203 | 4.8 | 6.4 | 0.00 | 0.00 | 0.00 | 1019.0 | |
| 20260505010032 | -17 | 223 | 4.8 | 6.4 | 0.00 | 0.00 | 0.00 | 1018.9 | |
| 20260505005528 | -17 | 223 | 3.2 | 4.8 | 0.00 | 0.00 | 0.00 | 1019.0 | |
| 20260505005026 | -17 | 220 | 3.2 | 4.8 | 0.00 | 0.00 | 0.00 | 1018.9 | |
| 20260505004523 | -17 | 224 | 3.2 | 4.8 | 0.00 | 0.00 | 0.00 | 1018.9 | |
| 20260505004020 | -17 | 209 | 4.8 | 4.8 | 0.00 | 0.00 | 0.00 | 1018.7 | |
| 20260505003517 | -17 | 240 | 3.2 | 3.2 | 0.00 | 0.00 | 0.00 | 1018.6 | |
| 20260505003014 | -17 | 261 | 3.2 | 4.8 | 0.00 | 0.00 | 0.00 | 1018.5 | |
| 20260505002509 | -17 | 269 | 3.2 | 4.8 | 0.00 | 0.00 | 0.00 | 1018.2 | |
| 20260505002008 | -17 | 234 | 3.2 | 4.8 | 0.00 | 0.00 | 0.00 | 1018.3 | |
| 20260505001505 | -17 | 259 | 6.4 | 6.4 | 0.00 | 0.00 | 0.00 | 1018.7 | |
| 20260505001002 | -17 | 232 | 4.8 | 4.8 | 0.00 | 0.00 | 0.00 | 1018.3 | |
| 20260505000500 | -17 | 240 | 4.8 | 6.4 | 0.00 | 0.00 | 0.00 | 1018.2 | |
| 20260504235956 | -17 | 219 | 3.2 | 6.4 | 0.00 | 0.00 | 0.00 | 1018.4 | |
| 20260504235454 | -17 | 231 | 6.4 | 6.4 | 0.00 | 0.00 | 0.00 | 1018.5 | |
| 20260504234950 | -17 | 250 | 6.4 | 9.7 | 0.00 | 0.00 | 0.00 | 1018.3 | |
| 20260504234447 | -17 | 226 | 6.4 | 9.7 | 0.00 | 0.00 | 0.00 | 1018.4 | |
| 20260504233944 | -17 | 246 | 6.4 | 9.7 | 0.00 | 0.00 | 0.00 | 1018.1 | |
| 20260504233439 | -17 | 218 | 8.0 | 11.3 | 0.00 | 0.00 | 0.00 | 1018.2 | |
| 20260504232937 | -17 | 227 | 8.0 | 9.7 | 0.00 | 0.00 | 0.00 | 1018.0 | |
| 20260504232434 | -17 | 232 | 9.7 | 12.9 | 0.00 | 0.00 | 0.00 | 1017.8 | |
| 20260504231931 | -17 | 243 | 11.3 | 11.3 | 0.00 | 0.00 | 0.00 | 1018.2 | |
| 20260504231427 | -17 | 236 | 6.4 | 9.7 | 0.00 | 0.00 | 0.00 | 1018.3 | |
| 20260504230923 | -17 | 234 | 8.0 | 11.3 | 0.00 | 0.00 | 0.00 | 1018.1 | |
| 20260504230420 | -17 | 230 | 6.4 | 11.3 | 0.00 | 0.00 | 0.00 | 1017.8 | |
| 20260504225919 | -17 | 244 | 9.7 | 12.9 | 0.00 | 0.00 | 0.00 | 1017.8 | |
| 20260504225416 | -17 | 264 | 8.0 | 12.9 | 0.00 | 0.00 | 0.00 | 1017.7 | |
| 20260504224913 | -17 | 246 | 9.7 | 12.9 | 0.00 | 0.00 | 0.00 | 1017.7 | |
| 20260504224409 | -17 | 263 | 8.0 | 12.9 | 0.00 | 0.00 | 0.00 | 1017.9 | |
| 20260504223907 | -17 | 254 | 8.0 | 11.3 | 0.00 | 0.00 | 0.00 | 1017.6 | |
| 20260504223402 | -17 | 300 | 8.0 | 11.3 | 0.00 | 0.00 | 0.00 | 1017.6 | |
| 20260504222858 | -17 | 272 | 4.8 | 6.4 | 0.00 | 0.00 | 0.00 | 1017.6 | |
| 20260504222355 | -17 | 280 | 6.4 | 6.4 | 0.00 | 0.00 | 0.00 | 1017.5 | |
| 20260504221854 | -17 | 308 | 4.8 | 4.8 | 0.00 | 0.00 | 0.00 | 1017.2 | |
| 20260504221350 | -17 | 328 | 1.6 | 3.2 | 0.00 | 0.00 | 0.00 | 1017.2 | |
| 20260504220848 | -17 | 334 | 4.8 | 6.4 | 0.00 | 0.00 | 0.00 | 1017.0 | |
| 20260504220344 | -17 | 334 | 6.4 | 9.7 | 0.00 | 0.00 | 0.00 | 1017.3 | |
| 20260504215841 | -17 | 252 | 9.7 | 11.3 | 0.00 | 0.00 | 0.00 | 1017.2 | |
| 20260504215338 | -17 | 84 | 4.8 | 4.8 | 0.00 | 0.00 | 0.00 | 1016.9 | |
| 20260504214834 | -17 | 335 | 4.8 | 6.4 | 0.00 | 0.00 | 0.00 | 1016.6 | |
| 20260504214331 | -17 | 0 | 1.6 | 6.4 | 0.00 | 0.00 | 0.00 | 1016.7 | |
| 20260504213828 | -17 | 63 | 3.2 | 6.4 | 0.00 | 0.00 | 0.00 | 1016.9 | |
| 20260504213323 | -17 | 34 | 3.2 | 6.4 | 0.00 | 0.00 | 0.00 | 1017.0 | |
| 20260504212821 | -17 | 19 | 6.4 | 9.7 | 0.00 | 0.00 | 0.00 | 1016.9 | |
| 20260504212317 | -17 | 329 | 3.2 | 4.8 | 0.00 | 0.00 | 0.00 | 1016.6 | |
| 20260504211815 | -17 | 49 | 8.0 | 9.7 | 0.00 | 0.00 | 0.00 | 1016.7 | |
| 20260504211311 | -17 | 40 | 9.7 | 11.3 | 0.00 | 0.00 | 0.00 | 1016.9 | |
| 20260504210808 | -17 | 68 | 6.4 | 6.4 | 0.00 | 0.00 | 0.00 | 1016.8 | |
| 20260504210306 | -17 | 40 | 6.4 | 6.4 | 0.00 | 0.00 | 0.00 | 1016.6 | |
| 20260504205803 | -17 | 41 | 11.3 | 12.9 | 0.00 | 0.00 | 0.00 | 1016.8 | |
| 20260504205300 | -17 | 69 | 3.2 | 9.7 | 0.00 | 0.00 | 0.00 | 1016.7 | |
| 20260504204758 | -17 | 61 | 1.6 | 9.7 | 0.00 | 0.00 | 0.00 | 1016.6 | |
| 20260504204256 | -17 | 138 | 3.2 | 9.7 | 0.00 | 0.00 | 0.00 | 1016.6 | |
| 20260504203755 | -17 | 209 | 3.2 | 4.8 | 0.00 | 0.00 | 0.00 | 1016.8 | |
| 20260504203252 | -17 | 76 | 11.3 | 14.5 | 0.00 | 0.00 | 0.00 | 1016.7 | |
| 20260504202746 | -17 | 85 | 4.8 | 9.7 | 0.00 | 0.00 | 0.00 | 1016.6 | |
| 20260504202244 | -17 | 28 | 4.8 | 11.3 | 0.00 | 0.00 | 0.00 | 1016.7 | |
| 20260504201741 | -17 | 60 | 8.0 | 16.1 | 0.00 | 0.00 | 0.00 | 1016.5 | |
| 20260504201238 | -17 | 81 | 14.5 | 14.5 | 0.00 | 0.00 | 0.00 | 1016.4 | |
| 20260504200736 | -17 | 60 | 6.4 | 12.9 | 0.00 | 0.00 | 0.00 | 1016.4 | |
| 20260504200231 | -17 | 39 | 6.4 | 9.7 | 0.00 | 0.00 | 0.00 | 1016.9 | |
| 20260504195728 | -17 | 125 | 6.4 | 12.9 | 0.00 | 0.00 | 0.00 | 1016.7 | |
| 20260504195224 | -17 | 159 | 6.4 | 16.1 | 0.00 | 0.00 | 0.00 | 1016.5 | |
| 20260504194721 | -17 | 70 | 20.9 | 25.7 | 0.00 | 0.00 | 0.00 | 1016.7 | |
| 20260504194217 | -17 | 87 | 11.3 | 16.1 | 0.00 | 0.00 | 0.00 | 1016.4 | |
| 20260504193714 | -17 | 73 | 16.1 | 17.7 | 0.00 | 0.00 | 0.00 | 1016.8 | |
| 20260504193212 | -17 | 55 | 4.8 | 12.9 | 0.00 | 0.00 | 0.00 | 1016.7 | |
| 20260504192710 | -17 | 58 | 8.0 | 9.7 | 0.00 | 0.00 | 0.00 | 1016.8 | |
| 20260504192208 | -17 | 183 | 3.2 | 6.4 | 0.00 | 0.00 | 0.00 | 1017.0 | |
| 20260504191706 | -17 | 328 | 6.4 | 11.3 | 0.00 | 0.00 | 0.00 | 1017.0 | |
| 20260504191202 | -17 | 78 | 4.8 | 4.8 | 0.00 | 0.00 | 0.00 | 1016.7 | |
| 20260504190658 | -17 | 33 | 19.3 | 24.1 | 0.00 | 0.00 | 0.00 | 1016.7 | |
| 20260504190154 | -17 | 48 | 14.5 | 22.5 | 0.00 | 0.00 | 0.00 | 1016.7 | |
| 20260504185651 | -17 | 45 | 12.9 | 17.7 | 0.00 | 0.00 | 0.00 | 1016.8 | |
| 20260504185147 | -17 | 26 | 14.5 | 14.5 | 0.00 | 0.00 | 0.00 | 1016.7 | |
| 20260504184644 | -17 | 40 | 11.3 | 20.9 | 0.00 | 0.00 | 0.00 | 1016.7 | |
| 20260504184139 | -17 | 44 | 17.7 | 20.9 | 0.00 | 0.00 | 0.00 | 1016.7 | |
| 20260504183636 | -17 | 43 | 16.1 | 24.1 | 0.00 | 0.00 | 0.00 | 1017.0 | |
| 20260504183133 | -17 | 31 | 19.3 | 25.7 | 0.00 | 0.00 | 0.00 | 1017.0 | |
| 20260504182631 | -17 | 37 | 16.1 | 20.9 | 0.00 | 0.00 | 0.00 | 1017.2 | |
| 20260504182128 | -17 | 47 | 16.1 | 17.7 | 0.00 | 0.00 | 0.00 | 1017.0 | |
| 20260504181626 | -17 | 53 | 16.1 | 20.9 | 0.00 | 0.00 | 0.00 | 1017.1 | |
| 20260504181123 | -17 | 36 | 14.5 | 22.5 | 0.00 | 0.00 | 0.00 | 1017.1 | |
| 20260504180622 | -17 | 21 | 11.3 | 20.9 | 0.00 | 0.00 | 0.00 | 1017.3 | |
| 20260504180121 | -17 | 62 | 22.5 | 25.7 | 0.00 | 0.00 | 0.00 | 1017.4 | |
| 20260504175617 | -17 | 50 | 17.7 | 30.6 | 0.00 | 0.00 | 0.00 | 1017.4 | |
| 20260504175114 | -17 | 31 | 27.4 | 29.0 | 0.00 | 0.00 | 0.00 | 1017.4 | |
| 20260504174612 | -17 | 36 | 17.7 | 24.1 | 0.00 | 0.00 | 0.00 | 1017.6 | |
| 20260504174108 | -17 | 26 | 12.9 | 20.9 | 0.00 | 0.00 | 0.00 | 1017.7 | |
| 20260504173605 | -17 | 27 | 19.3 | 25.7 | 0.00 | 0.00 | 0.00 | 1017.8 | |
| 20260504173103 | -17 | 357 | 17.7 | 20.9 | 0.00 | 0.00 | 0.00 | 1017.8 | |
| 20260504172559 | -17 | 26 | 20.9 | 24.1 | 0.00 | 0.00 | 0.00 | 1017.8 | |
| 20260504172056 | -17 | 42 | 17.7 | 20.9 | 0.00 | 0.00 | 0.00 | 1017.8 | |
| 20260504171552 | -17 | 17 | 9.7 | 12.9 | 0.00 | 0.00 | 0.00 | 1017.9 | |
| 20260504171049 | -17 | 22 | 6.4 | 20.9 | 0.00 | 0.00 | 0.00 | 1017.8 | |
| 20260504170545 | -17 | 59 | 16.1 | 20.9 | 0.00 | 0.00 | 0.00 | 1017.7 | |
| 20260504150929 | -17 | 31 | 22.5 | 25.7 | 0.00 | 0.00 | 0.00 | 1018.9 | |
| 20260504150426 | -17 | 36 | 17.7 | 22.5 | 0.00 | 0.00 | 0.00 | 1018.9 | |
| 20260504140852 | -17 | 101 | 17.7 | 22.5 | 0.00 | 0.00 | 0.00 | 1019.0 | |
| 20260504140348 | -17 | 90 | 14.5 | 20.9 | 0.00 | 0.00 | 0.00 | 1019.3 | |
| 20260504130817 | -17 | 70 | 11.3 | 24.1 | 0.00 | 0.00 | 0.00 | 1018.6 | |
| 20260504130314 | -17 | 107 | 16.1 | 22.5 | 0.00 | 0.00 | 0.00 | 1018.8 | |
| 20260504120237 | -17 | 88 | 9.7 | 11.3 | 0.00 | 0.00 | 0.00 | 1019.2 | |
| 20260504110704 | -17 | 134 | 6.4 | 9.7 | 0.00 | 0.00 | 0.00 | 1019.1 | |
| 20260504110201 | -17 | 111 | 3.2 | 6.4 | 0.00 | 0.00 | 0.00 | 1019.1 | |
| 20260504100125 | -17 | 150 | 8.0 | 9.7 | 0.00 | 0.00 | 0.00 | 1018.8 | |
| 20260504081518 | -17 | 141 | 8.0 | 11.3 | 0.00 | 0.00 | 0.00 | 1017.8 | |
| 20260504081013 | -17 | 134 | 9.7 | 12.9 | 0.00 | 0.00 | 0.00 | 1018.0 |